Powrót do katalogu

STARLINK-5286

AktywnyŁącznośćVLEO
NORAD 55294·PAYLOAD·🇺🇸 United States

Wystrzelony Jan 19, 2023 z Vandenberg Space Force Base

Loading…

Następne Przeloty (najbliższe 24 godziny)

TLE

ŚwieżeSource: CelesTrak SupGP

Epoka: Sep 15, 2026, 02:40 UTC

1 55294C 23010AB  26258.11159722 -.00007392  00000+0 -61936-3 0  2580
2 55294  69.9995 286.7318 0003801 266.9093  50.4413 14.98341229    17

Śledź STARLINK-5286 w czasie rzeczywistym z AllMySat

Download on the App Store